QPF
0.00 0.00 0.00 0.00 0.00 0.00 0.01 0.01 0.01 0.01 0.02 0.02 0.02 0.01 0.00 0.00 0.00 0.00 0.00 0.00 0.01 0.03 0.06 0.06 0.04 0.02 0.01 0.00 0.00 0.00 0.00 0.00 0.00 0.00 0.00 0.00 0.00 0.00 0.00 0.00 0.00 0.00 0.00
0.00 0.00 0.00 0.00 0.00 0.01 0.01 0.02 0.01 0.01 0.01 0.01 0.01 0.00 0.00 0.00 0.00 0.00 0.00 0.01 0.02 0.04 0.06 0.05 0.02 0.01 0.00 0.00 0.00 0.00 0.00 0.00 0.00 0.00 0.00 0.00 0.00 0.00 0.00 0.00 0.00 0.00 0.00
0.00 0.00 0.00 0.00 0.00 0.01 0.02 0.02 0.01 0.01 0.01 0.01 0.00 0.00 0.00 0.00 0.00 0.01 0.01 0.02 0.03 0.04 0.04 0.02 0.01 0.00 0.00 0.00 0.00 0.00 0.00 0.00 0.00 0.00 0.00 0.00 0.00 0.00 0.00 0.00 0.00 0.00 0.00
0.00 0.00 0.00 0.00 0.00 0.01 0.02 0.01 0.01 0.01 0.01 0.00 0.00 0.00 0.00 0.00 0.01 0.01 0.02 0.02 0.03 0.03 0.02 0.01 0.00 0.00 0.00 0.00 0.00 0.00 0.00 0.00 0.00 0.00 0.00 0.00 0.00 0.00 0.00 0.00 0.00 0.00 0.00
0.00 0.00 0.00 0.00 0.01 0.01 0.01 0.01 0.01 0.01 0.00 0.00 0.00 0.00 0.00 0.00 0.01 0.01 0.02 0.01 0.01 0.01 0.00 0.00 0.00 0.00 0.00 0.00 0.00 0.00 0.00 0.00 0.00 0.00 0.00 0.00 0.00 0.00 0.01 0.01 0.01 0.01 0.01
0.00 0.00 0.00 0.00 0.01 0.01 0.01 0.01 0.01 0.01 0.00 0.00 0.00 0.00 0.00 0.00 0.01 0.01 0.00 0.00 0.00 0.00 0.00 0.00 0.00 0.00 0.00 0.00 0.00 0.00 0.00 0.00 0.00 0.00 0.00 0.01 0.01 0.01 0.02 0.02 0.02 0.03 0.03
0.00 0.00 0.00 0.00 0.01 0.01 0.01 0.01 0.01 0.01 0.00 0.00 0.00 0.00 0.00 0.00 0.00 0.00 0.00 0.00 0.00 0.00 0.00 0.00 0.00 0.00 0.00 0.00 0.00 0.00 0.00 0.00 0.00 0.00 0.00 0.01 0.01 0.02 0.03 0.03 0.03 0.03 0.03
0.00 0.00 0.00 0.00 0.01 0.01 0.01 0.01 0.01 0.01 0.01 0.00 0.00 0.00 0.00 0.00 0.00 0.00 0.00 0.00 0.00 0.00 0.00 0.00 0.00 0.00 0.00 0.00 0.00 0.00 0.00 0.00 0.00 0.00 0.00 0.00 0.01 0.03 0.02 0.01 0.01 0.01 0.01
0.00 0.00 0.00 0.00 0.00 0.00 0.00 0.00 0.01 0.01 0.01 0.00 0.00 0.00 0.00 0.00 0.00 0.00 0.00 0.00 0.00 0.00 0.00 0.00 0.00 0.00 0.00 0.00 0.00 0.00 0.00 0.00 0.00 0.00 0.00 0.01 0.01 0.03 0.01 0.00 0.00 0.00 0.00
0.00 0.00 0.00 0.00 0.00 0.00 0.00 0.00 0.01 0.01 0.01 0.00 0.00 0.00 0.00 0.00 0.00 0.00 0.00 0.00 0.00 0.00 0.00 0.00 0.00 0.00 0.00 0.00 0.00 0.00 0.00 0.00 0.00 0.00 0.00 0.00 0.01 0.01 0.00 0.00 0.00 0.00 0.00
0.00 0.00 0.00 0.00 0.00 0.00 0.00 0.00 0.00 0.01 0.00 0.00 0.00 0.00 0.00 0.00 0.00 0.00 0.00 0.00 0.00 0.00 0.00 0.00 0.00 0.00 0.00 0.00 0.00 0.00 0.00 0.00 0.00 0.00 0.00 0.00 0.00 0.00 0.00 0.00 0.00 0.00 0.00
0.00 0.00 0.00 0.00 0.00 0.00 0.00 0.00 0.00 0.00 0.00 0.00 0.00 0.00 0.00 0.00 0.00 0.00 0.00 0.00 0.00 0.00 0.00 0.00 0.00 0.00 0.00 0.00 0.00 0.00 0.00 0.00 0.00 0.00 0.00 0.00 0.00 0.00 0.00 0.00 0.00 0.00 0.00
0.00 0.00 0.00 0.00 0.00 0.00 0.00 0.00 0.00 0.00 0.00 0.00 0.00 0.00 0.00 0.00 0.00 0.00 0.00 0.00 0.00 0.00 0.00 0.00 0.00 0.00 0.00 0.00 0.00 0.00 0.00 0.00 0.00 0.00 0.00 0.00 0.00 0.00 0.00 0.00 0.00 0.00 0.00
0.00 0.00 0.00 0.00 0.00 0.00 0.00 0.00 0.00 0.00 0.00 0.00 0.00 0.00 0.00 0.00 0.00 0.00 0.00 0.00 0.00 0.00 0.00 0.00 0.00 0.00 0.00 0.00 0.00 0.00 0.00 0.00 0.00 0.00 0.00 0.00 0.00 0.00 0.00 0.00 0.00 0.00 0.00
0.00 0.00 0.00 0.00 0.00 0.00 0.00 0.00 0.00 0.00 0.00 0.00 0.00 0.00 0.00 0.00 0.00 0.00 0.00 0.00 0.00 0.00 0.00 0.00 0.00 0.00 0.00 0.00 0.00 0.00 0.00 0.00 0.00 0.00 0.00 0.00 0.00 0.00 0.00 0.00 0.00 0.00 0.00
0.00 0.00 0.00 0.00 0.00 0.00 0.00 0.00 0.00 0.00 0.00 0.00 0.00 0.00 0.00 0.00 0.00 0.00 0.00 0.00 0.00 0.00 0.00 0.00 0.00 0.00 0.00 0.00 0.00 0.00 0.00 0.00 0.00 0.00 0.00 0.00 0.00 0.00 0.00 0.00 0.00 0.00 0.00
0.00 0.00 0.01 0.00 0.00 0.00 0.00 0.00 0.00 0.00 0.00 0.00 0.00 0.00 0.00 0.00 0.00 0.00 0.00 0.00 0.00 0.00 0.00 0.00 0.00 0.00 0.00 0.00 0.00 0.00 0.00 0.00 0.00 0.00 0.00 0.00 0.00 0.00 0.00 0.00 0.00 0.00 0.00
0.00 0.00 0.01 0.01 0.00 0.00 0.00 0.00 0.00 0.00 0.00 0.00 0.00 0.00 0.00 0.00 0.00 0.00 0.00 0.00 0.00 0.00 0.00 0.00 0.00 0.00 0.00 0.00 0.00 0.00 0.00 0.00 0.00 0.00 0.00 0.00 0.00 0.00 0.00 0.00 0.00 0.00 0.00
0.00 0.00 0.00 0.00 0.00 0.00 0.01 0.01 0.01 0.00 0.00 0.00 0.00 0.00 0.00 0.00 0.01 0.00 0.00 0.00 0.00 0.00 0.00 0.00 0.00 0.00 0.00 0.00 0.00 0.00 0.00 0.00 0.00 0.00 0.00 0.00 0.00 0.00 0.00 0.00 0.00 0.00 0.00
0.00 0.00 0.00 0.00 0.00 0.00 0.01 0.02 0.02 0.02 0.01 0.00 0.00 0.00 0.00 0.01 0.01 0.01 0.00 0.00 0.00 0.00 0.00 0.00 0.00 0.00 0.00 0.00 0.00 0.00 0.00 0.00 0.00 0.00 0.00 0.00 0.00 0.00 0.00 0.00 0.00 0.00 0.00
0.00 0.00 0.00 0.00 0.00 0.00 0.01 0.02 0.02 0.01 0.01 0.01 0.00 0.01 0.01 0.01 0.01 0.02 0.01 0.01 0.00 0.00 0.01 0.00 0.00 0.00 0.00 0.00 0.00 0.00 0.00 0.00 0.00 0.00 0.00 0.00 0.00 0.00 0.00 0.00 0.00 0.00 0.00
0.00 0.00 0.00 0.00 0.00 0.00 0.00 0.01 0.01 0.01 0.01 0.01 0.01 0.00 0.00 0.01 0.01 0.01 0.01 0.01 0.01 0.01 0.01 0.01 0.01 0.00 0.00 0.00 0.00 0.00 0.00 0.00 0.00 0.00 0.00 0.00 0.00 0.00 0.00 0.00 0.00 0.00 0.00
0.00 0.00 0.00 0.00 0.00 0.00 0.00 0.00 0.00 0.01 0.01 0.00 0.01 0.01 0.00 0.00 0.00 0.01 0.01 0.01 0.01 0.02 0.02 0.02 0.02 0.01 0.01 0.01 0.00 0.00 0.00 0.00 0.00 0.00 0.00 0.00 0.00 0.00 0.00 0.00 0.00 0.00 0.00
0.00 0.00 0.00 0.00 0.00 0.00 0.00 0.00 0.00 0.00 0.00 0.00 0.00 0.01 0.01 0.01 0.00 0.01 0.01 0.01 0.02 0.02 0.03 0.04 0.05 0.04 0.03 0.02 0.02 0.01 0.01 0.00 0.00 0.00 0.00 0.00 0.00 0.00 0.00 0.00 0.00 0.00 0.00
0.00 0.00 0.00 0.00 0.00 0.00 0.00 0.00 0.00 0.00 0.00 0.00 0.00 0.00 0.01 0.01 0.02 0.02 0.02 0.02 0.02 0.02 0.03 0.05 0.06 0.06 0.06 0.05 0.04 0.06 0.05 0.03 0.01 0.01 0.01 0.01 0.01 0.00 0.00 0.00 0.00 0.00 0.00
0.00 0.00 0.00 0.00 0.00 0.00 0.00 0.00 0.00 0.00 0.00 0.00 0.00 0.00 0.00 0.01 0.02 0.03 0.03 0.03 0.03 0.03 0.04 0.06 0.07 0.08 0.11 0.10 0.07 0.06 0.09 0.08 0.05 0.04 0.03 0.02 0.02 0.01 0.01 0.01 0.01 0.01 0.01
MSLP
1012.87 1012.94 1013.09 1013.34 1013.68 1014.08 1014.51 1014.91 1015.27 1015.56 1015.78 1015.95 1016.11 1016.27 1016.45 1016.65 1016.86 1017.06 1017.23 1017.37 1017.48 1017.58 1017.67 1017.79 1017.93 1018.10 1018.28 1018.46 1018.63 1018.76 1018.85 1018.92 1018.97 1019.02 1019.09 1019.16 1019.24 1019.31 1019.36 1019.39 1019.38 1019.37 1019.35
1012.67 1012.83 1013.08 1013.43 1013.87 1014.34 1014.81 1015.23 1015.57 1015.83 1016.03 1016.19 1016.34 1016.50 1016.69 1016.90 1017.11 1017.31 1017.47 1017.62 1017.74 1017.86 1017.99 1018.15 1018.33 1018.54 1018.74 1018.91 1019.04 1019.13 1019.17 1019.19 1019.19 1019.22 1019.26 1019.33 1019.42 1019.49 1019.54 1019.57 1019.56 1019.54 1019.52
1012.46 1012.69 1013.04 1013.51 1014.04 1014.59 1015.10 1015.54 1015.88 1016.14 1016.33 1016.49 1016.64 1016.82 1017.01 1017.21 1017.41 1017.58 1017.73 1017.85 1017.97 1018.09 1018.25 1018.44 1018.66 1018.89 1019.09 1019.26 1019.36 1019.39 1019.38 1019.35 1019.32 1019.32 1019.37 1019.44 1019.54 1019.63 1019.70 1019.74 1019.74 1019.73 1019.71
1012.24 1012.55 1013.00 1013.57 1014.18 1014.80 1015.36 1015.82 1016.18 1016.44 1016.64 1016.82 1016.99 1017.17 1017.37 1017.57 1017.74 1017.89 1017.99 1018.09 1018.18 1018.30 1018.47 1018.67 1018.91 1019.15 1019.36 1019.51 1019.58 1019.58 1019.53 1019.46 1019.40 1019.40 1019.45 1019.54 1019.66 1019.78 1019.87 1019.93 1019.95 1019.95 1019.95
1012.07 1012.45 1012.99 1013.63 1014.32 1014.98 1015.57 1016.05 1016.42 1016.70 1016.92 1017.12 1017.32 1017.53 1017.74 1017.93 1018.09 1018.20 1018.27 1018.33 1018.40 1018.50 1018.67 1018.88 1019.13 1019.38 1019.58 1019.71 1019.75 1019.72 1019.64 1019.55 1019.50 1019.49 1019.56 1019.68 1019.83 1019.97 1020.09 1020.17 1020.21 1020.23 1020.24
1011.99 1012.43 1013.03 1013.73 1014.46 1015.15 1015.74 1016.22 1016.59 1016.88 1017.11 1017.34 1017.58 1017.82 1018.06 1018.26 1018.41 1018.50 1018.55 1018.58 1018.63 1018.73 1018.89 1019.11 1019.36 1019.60 1019.79 1019.91 1019.93 1019.88 1019.79 1019.69 1019.64 1019.65 1019.74 1019.89 1020.06 1020.23 1020.38 1020.47 1020.53 1020.55 1020.58
1012.04 1012.53 1013.17 1013.89 1014.62 1015.30 1015.87 1016.33 1016.68 1016.96 1017.21 1017.47 1017.74 1018.03 1018.30 1018.52 1018.69 1018.79 1018.83 1018.85 1018.90 1018.99 1019.15 1019.36 1019.61 1019.84 1020.03 1020.13 1020.14 1020.08 1019.98 1019.89 1019.86 1019.90 1020.01 1020.18 1020.38 1020.57 1020.72 1020.83 1020.89 1020.92 1020.95
1012.24 1012.76 1013.41 1014.12 1014.82 1015.45 1015.97 1016.38 1016.70 1016.96 1017.22 1017.49 1017.81 1018.13 1018.44 1018.71 1018.90 1019.02 1019.08 1019.12 1019.17 1019.27 1019.43 1019.65 1019.89 1020.12 1020.28 1020.37 1020.37 1020.31 1020.22 1020.15 1020.13 1020.20 1020.34 1020.54 1020.75 1020.95 1021.11 1021.22 1021.27 1021.30 1021.33
1012.58 1013.10 1013.73 1014.41 1015.05 1015.61 1016.06 1016.40 1016.67 1016.90 1017.15 1017.44 1017.78 1018.14 1018.50 1018.80 1019.03 1019.19 1019.28 1019.35 1019.43 1019.55 1019.72 1019.94 1020.17 1020.38 1020.53 1020.60 1020.59 1020.53 1020.46 1020.41 1020.42 1020.52 1020.69 1020.91 1021.14 1021.34 1021.50 1021.59 1021.64 1021.67 1021.69
1013.00 1013.51 1014.10 1014.72 1015.29 1015.76 1016.13 1016.40 1016.61 1016.81 1017.04 1017.34 1017.70 1018.09 1018.47 1018.81 1019.08 1019.27 1019.40 1019.50 1019.61 1019.75 1019.94 1020.16 1020.39 1020.58 1020.72 1020.77 1020.76 1020.70 1020.64 1020.62 1020.66 1020.79 1020.99 1021.23 1021.47 1021.68 1021.84 1021.93 1021.98 1022.00 1022.02
1013.43 1013.91 1014.45 1015.00 1015.49 1015.88 1016.16 1016.37 1016.53 1016.70 1016.92 1017.22 1017.58 1017.98 1018.37 1018.73 1019.02 1019.24 1019.40 1019.53 1019.67 1019.84 1020.04 1020.27 1020.49 1020.67 1020.79 1020.84 1020.82 1020.77 1020.73 1020.73 1020.81 1020.97 1021.19 1021.45 1021.71 1021.94 1022.10 1022.20 1022.25 1022.28 1022.30
1013.78 1014.22 1014.71 1015.18 1015.60 1015.91 1016.14 1016.29 1016.42 1016.57 1016.79 1017.08 1017.43 1017.82 1018.21 1018.56 1018.86 1019.09 1019.27 1019.42 1019.59 1019.78 1019.99 1020.22 1020.44 1020.61 1020.72 1020.77 1020.75 1020.72 1020.70 1020.73 1020.84 1021.02 1021.28 1021.56 1021.84 1022.09 1022.27 1022.40 1022.47 1022.51 1022.55
1013.98 1014.38 1014.82 1015.23 1015.57 1015.83 1016.01 1016.15 1016.27 1016.42 1016.63 1016.91 1017.26 1017.63 1017.99 1018.32 1018.59 1018.81 1019.00 1019.17 1019.35 1019.55 1019.78 1020.01 1020.23 1020.41 1020.52 1020.57 1020.57 1020.56 1020.57 1020.63 1020.76 1020.98 1021.26 1021.57 1021.87 1022.15 1022.36 1022.52 1022.63 1022.70 1022.76
1014.01 1014.37 1014.75 1015.10 1015.39 1015.61 1015.78 1015.91 1016.04 1016.21 1016.43 1016.71 1017.04 1017.38 1017.71 1018.00 1018.24 1018.44 1018.62 1018.79 1018.98 1019.20 1019.44 1019.68 1019.91 1020.10 1020.22 1020.29 1020.32 1020.33 1020.37 1020.46 1020.63 1020.87 1021.17 1021.50 1021.83 1022.13 1022.39 1022.59 1022.74 1022.86 1022.96
1013.87 1014.18 1014.51 1014.81 1015.06 1015.26 1015.42 1015.57 1015.73 1015.93 1016.17 1016.46 1016.77 1017.07 1017.36 1017.61 1017.82 1017.99 1018.16 1018.33 1018.53 1018.77 1019.03 1019.29 1019.54 1019.74 1019.89 1019.99 1020.05 1020.11 1020.18 1020.30 1020.49 1020.75 1021.05 1021.39 1021.74 1022.07 1022.36 1022.61 1022.81 1022.98 1023.13
1013.60 1013.87 1014.15 1014.40 1014.62 1014.81 1014.98 1015.15 1015.35 1015.58 1015.84 1016.13 1016.43 1016.71 1016.96 1017.17 1017.35 1017.51 1017.67 1017.85 1018.07 1018.33 1018.61 1018.90 1019.17 1019.40 1019.59 1019.73 1019.84 1019.93 1020.04 1020.19 1020.39 1020.65 1020.96 1021.30 1021.64 1021.98 1022.29 1022.57 1022.83 1023.05 1023.24
1013.30 1013.53 1013.75 1013.95 1014.14 1014.32 1014.50 1014.70 1014.92 1015.18 1015.46 1015.75 1016.03 1016.29 1016.51 1016.70 1016.86 1017.01 1017.18 1017.39 1017.63 1017.92 1018.23 1018.55 1018.86 1019.13 1019.35 1019.54 1019.69 1019.83 1019.98 1020.15 1020.36 1020.61 1020.90 1021.21 1021.53 1021.85 1022.17 1022.48 1022.77 1023.04 1023.28
1013.05 1013.23 1013.40 1013.55 1013.71 1013.87 1014.05 1014.26 1014.51 1014.78 1015.06 1015.35 1015.61 1015.84 1016.03 1016.20 1016.36 1016.53 1016.72 1016.95 1017.24 1017.56 1017.91 1018.26 1018.60 1018.91 1019.18 1019.40 1019.60 1019.79 1019.97 1020.15 1020.36 1020.59 1020.84 1021.11 1021.39 1021.68 1021.99 1022.30 1022.61 1022.91 1023.20
1012.93 1013.06 1013.17 1013.27 1013.39 1013.52 1013.69 1013.90 1014.15 1014.41 1014.68 1014.94 1015.17 1015.37 1015.55 1015.71 1015.87 1016.05 1016.28 1016.55 1016.87 1017.23 1017.62 1018.00 1018.37 1018.71 1019.01 1019.28 1019.52 1019.74 1019.95 1020.15 1020.35 1020.56 1020.76 1020.98 1021.20 1021.45 1021.71 1022.01 1022.32 1022.65 1022.98
1012.97 1013.05 1013.11 1013.16 1013.23 1013.33 1013.48 1013.67 1013.88 1014.12 1014.35 1014.57 1014.75 1014.92 1015.06 1015.21 1015.37 1015.58 1015.84 1016.15 1016.51 1016.90 1017.31 1017.71 1018.10 1018.46 1018.79 1019.09 1019.36 1019.62 1019.86 1020.07 1020.27 1020.45 1020.61 1020.77 1020.94 1021.12 1021.35 1021.61 1021.92 1022.26 1022.62
1013.19 1013.22 1013.21 1013.22 1013.24 1013.31 1013.42 1013.57 1013.75 1013.93 1014.10 1014.25 1014.38 1014.48 1014.59 1014.71 1014.87 1015.09 1015.37 1015.70 1016.08 1016.49 1016.91 1017.33 1017.72 1018.09 1018.43 1018.76 1019.07 1019.35 1019.61 1019.85 1020.05 1020.21 1020.35 1020.46 1020.58 1020.72 1020.90 1021.13 1021.43 1021.78 1022.16
1013.54 1013.51 1013.46 1013.42 1013.40 1013.43 1013.50 1013.60 1013.72 1013.84 1013.94 1014.01 1014.05 1014.09 1014.13 1014.22 1014.36 1014.56 1014.84 1015.19 1015.57 1015.98 1016.39 1016.80 1017.18 1017.55 1017.90 1018.24 1018.57 1018.89 1019.18 1019.44 1019.66 1019.83 1019.96 1020.06 1020.15 1020.25 1020.41 1020.62 1020.91 1021.27 1021.67
1013.96 1013.89 1013.79 1013.71 1013.65 1013.64 1013.67 1013.73 1013.79 1013.83 1013.84 1013.82 1013.78 1013.73 1013.70 1013.73 1013.83 1014.00 1014.26 1014.58 1014.95 1015.33 1015.72 1016.10 1016.47 1016.83 1017.18 1017.53 1017.88 1018.23 1018.56 1018.86 1019.11 1019.31 1019.46 1019.57 1019.67 1019.78 1019.93 1020.15 1020.43 1020.80 1021.22
1014.37 1014.26 1014.14 1014.02 1013.94 1013.90 1013.90 1013.91 1013.91 1013.88 1013.81 1013.69 1013.55 1013.42 1013.31 1013.27 1013.30 1013.42 1013.63 1013.91 1014.23 1014.58 1014.93 1015.27 1015.61 1015.95 1016.29 1016.65 1017.03 1017.41 1017.78 1018.13 1018.44 1018.69 1018.89 1019.05 1019.19 1019.34 1019.52 1019.77 1020.08 1020.46 1020.89
1014.73 1014.59 1014.45 1014.32 1014.22 1014.16 1014.13 1014.10 1014.05 1013.95 1013.81 1013.61 1013.39 1013.17 1012.98 1012.85 1012.81 1012.87 1013.01 1013.23 1013.49 1013.77 1014.07 1014.37 1014.68 1014.99 1015.33 1015.69 1016.09 1016.50 1016.92 1017.33 1017.70 1018.03 1018.31 1018.55 1018.77 1018.99 1019.24 1019.53 1019.88 1020.28 1020.73
1014.99 1014.85 1014.70 1014.57 1014.47 1014.39 1014.34 1014.28 1014.19 1014.04 1013.83 1013.57 1013.28 1012.99 1012.73 1012.53 1012.42 1012.40 1012.47 1012.60 1012.79 1013.01 1013.25 1013.50 1013.77 1014.06 1014.38 1014.75 1015.16 1015.61 1016.07 1016.54 1016.99 1017.40 1017.77 1018.11 1018.43 1018.75 1019.09 1019.45 1019.86 1020.30 1020.75
Thickness
5775 5773 5769 5766 5764 5762 5760 5759 5757 5755 5753 5751 5749 5747 5746 5744 5744 5743 5743 5742 5742 5741 5739 5737 5735 5733 5732 5730 5728 5727 5726 5724 5723 5722 5720 5719 5718 5717 5716 5715 5715 5713 5712
5777 5771 5767 5764 5761 5759 5757 5755 5753 5751 5749 5747 5745 5743 5742 5741 5740 5740 5740 5739 5738 5737 5735 5732 5730 5728 5726 5724 5723 5722 5721 5720 5719 5717 5716 5715 5713 5712 5711 5710 5710 5708 5707
5775 5768 5764 5761 5759 5756 5754 5752 5749 5747 5745 5743 5741 5739 5738 5737 5737 5736 5736 5735 5733 5732 5730 5727 5725 5723 5721 5719 5718 5717 5716 5716 5714 5713 5712 5711 5709 5708 5707 5706 5705 5704 5703
5771 5765 5762 5758 5756 5753 5751 5748 5746 5743 5741 5739 5737 5735 5734 5733 5733 5732 5731 5730 5728 5726 5724 5722 5720 5718 5716 5714 5713 5712 5712 5712 5711 5710 5710 5707 5706 5704 5703 5702 5701 5700 5699
5768 5763 5758 5755 5753 5750 5747 5745 5742 5740 5737 5735 5733 5732 5730 5729 5728 5727 5726 5724 5722 5720 5718 5716 5714 5713 5711 5710 5709 5708 5708 5707 5707 5707 5706 5703 5701 5700 5699 5698 5697 5696 5695
5765 5759 5753 5751 5749 5746 5744 5741 5739 5736 5734 5731 5730 5728 5726 5725 5724 5722 5720 5718 5716 5715 5713 5711 5710 5708 5706 5705 5704 5703 5703 5703 5702 5702 5700 5698 5696 5695 5694 5693 5692 5691 5689
5761 5754 5749 5746 5744 5742 5740 5737 5735 5733 5730 5728 5726 5724 5722 5721 5719 5717 5715 5713 5711 5710 5708 5706 5705 5703 5701 5700 5699 5698 5698 5698 5698 5697 5695 5692 5690 5689 5688 5686 5685 5684 5683
5756 5749 5744 5741 5739 5737 5735 5733 5731 5729 5726 5724 5722 5720 5719 5716 5714 5712 5710 5709 5707 5705 5703 5702 5700 5698 5696 5695 5694 5693 5693 5693 5692 5691 5688 5686 5684 5683 5681 5679 5678 5677 5676
5752 5744 5739 5736 5735 5733 5731 5729 5727 5725 5723 5721 5718 5716 5714 5712 5710 5708 5706 5705 5703 5701 5699 5697 5696 5694 5692 5691 5689 5688 5688 5688 5687 5685 5682 5680 5678 5676 5674 5673 5671 5670 5669
5747 5741 5736 5734 5731 5729 5727 5725 5723 5721 5719 5717 5715 5713 5711 5709 5707 5704 5703 5701 5699 5698 5695 5693 5691 5690 5688 5686 5685 5684 5684 5684 5682 5680 5676 5674 5672 5670 5668 5666 5665 5663 5661
5740 5738 5735 5733 5730 5727 5724 5721 5719 5717 5716 5713 5711 5709 5707 5705 5704 5702 5700 5697 5696 5694 5692 5690 5688 5686 5684 5682 5681 5680 5679 5679 5678 5675 5671 5668 5666 5664 5661 5660 5658 5656 5654
5731 5734 5734 5732 5730 5727 5724 5719 5716 5714 5712 5710 5708 5706 5705 5704 5703 5700 5697 5694 5692 5690 5688 5686 5684 5682 5681 5679 5677 5676 5675 5675 5675 5671 5666 5664 5661 5658 5655 5653 5651 5649 5647
5725 5727 5729 5729 5727 5725 5722 5717 5716 5713 5710 5708 5707 5704 5703 5703 5702 5698 5694 5691 5689 5686 5684 5682 5680 5679 5678 5676 5674 5673 5672 5672 5671 5667 5662 5659 5656 5653 5650 5647 5645 5643 5641
5719 5720 5722 5723 5722 5721 5719 5717 5716 5713 5710 5708 5707 5705 5702 5702 5700 5697 5693 5689 5687 5685 5682 5679 5677 5676 5675 5674 5672 5670 5669 5667 5666 5662 5658 5654 5651 5648 5645 5642 5640 5638 5635
5717 5716 5716 5717 5717 5716 5716 5715 5714 5712 5711 5708 5706 5704 5702 5700 5698 5696 5693 5690 5687 5684 5681 5678 5675 5675 5673 5671 5669 5667 5665 5663 5661 5658 5653 5650 5647 5644 5640 5637 5635 5633 5631
5716 5715 5714 5713 5713 5712 5711 5710 5710 5710 5709 5707 5705 5702 5700 5698 5696 5693 5691 5689 5686 5683 5681 5677 5674 5673 5671 5668 5665 5663 5662 5660 5657 5654 5650 5645 5642 5639 5636 5633 5631 5628 5626
5716 5716 5714 5713 5712 5710 5708 5707 5706 5705 5705 5704 5703 5700 5697 5695 5693 5690 5688 5686 5684 5681 5678 5675 5672 5670 5667 5664 5661 5659 5657 5655 5653 5650 5647 5642 5638 5634 5631 5629 5626 5623 5621
5713 5713 5713 5713 5711 5709 5707 5705 5703 5702 5701 5700 5699 5697 5695 5692 5689 5687 5684 5682 5680 5677 5675 5672 5668 5664 5662 5659 5656 5653 5652 5650 5648 5646 5643 5639 5635 5631 5627 5624 5622 5619 5616
5709 5709 5710 5710 5709 5707 5706 5704 5702 5700 5698 5696 5694 5693 5692 5689 5687 5684 5681 5679 5676 5673 5670 5667 5663 5659 5655 5652 5649 5647 5646 5644 5642 5640 5638 5635 5632 5628 5624 5620 5617 5614 5611
5703 5704 5705 5705 5705 5705 5704 5702 5699 5697 5695 5693 5691 5688 5687 5685 5683 5680 5678 5675 5672 5668 5664 5661 5657 5654 5650 5646 5643 5640 5638 5637 5635 5633 5632 5630 5627 5624 5620 5616 5612 5609 5606
5693 5694 5695 5696 5698 5698 5696 5694 5692 5691 5691 5689 5688 5685 5682 5680 5678 5676 5674 5671 5668 5664 5660 5656 5651 5646 5642 5638 5631 5627 5627 5628 5627 5627 5625 5623 5621 5618 5615 5611 5607 5604 5600
5681 5682 5684 5686 5688 5690 5690 5690 5689 5688 5688 5687 5685 5683 5680 5676 5672 5669 5667 5665 5662 5658 5654 5650 5646 5640 5635 5632 5624 5615 5611 5612 5617 5620 5618 5616 5615 5612 5609 5606 5603 5599 5595
5668 5669 5672 5675 5677 5680 5681 5682 5682 5682 5681 5680 5679 5678 5676 5672 5668 5664 5660 5657 5654 5651 5648 5644 5640 5634 5628 5625 5623 5616 5609 5610 5608 5609 5611 5610 5608 5606 5604 5601 5597 5594 5591
5657 5659 5661 5664 5668 5670 5672 5671 5670 5669 5668 5670 5671 5672 5671 5669 5665 5661 5656 5651 5647 5643 5640 5637 5633 5628 5622 5616 5613 5614 5614 5611 5603 5598 5600 5601 5600 5599 5597 5594 5591 5588 5585
5648 5649 5652 5655 5658 5661 5662 5663 5661 5661 5661 5662 5663 5663 5664 5663 5661 5657 5652 5646 5641 5636 5632 5628 5624 5620 5616 5611 5605 5603 5599 5597 5598 5592 5587 5588 5589 5590 5588 5586 5583 5579 5576
5639 5640 5643 5646 5648 5651 5652 5653 5653 5652 5652 5651 5651 5652 5653 5653 5652 5651 5646 5642 5636 5631 5625 5620 5615 5611 5608 5603 5598 5594 5591 5587 5587 5585 5582 5576 5576 5577 5576 5575 5572 5569 5564